Salina, KS

9:13 PM CST on December 03, 2016 (GMT -0600)
Salina Municipal

Weather History for KSLN - January, 2013

Change the Weather History Date:

Monday, January 7, 2013

  Actual Average Record
Temperature  
Mean Temperature 42 °F 31 °F  
Max Temperature 52 °F 41 °F 72 °F (2006)
Min Temperature 31 °F 20 °F -12 °F (1912)
Degree Days  
Heating Degree Days 23 34  
Month to date heating degree days 270 238  
Since 1 July heating degree days 2047 2202  
Cooling Degree Days 0 0  
Month to date cooling degree days 0 0  
Year to date cooling degree days 0 0  
Moisture  
Dew Point 26 °F    
Average Humidity 56    
Maximum Humidity 70    
Minimum Humidity 41    
Precipitation  
Precipitation 0.00 in 0.02 in 0.38 in (2016)
Month to date precipitation 0.24 0.11  
Year to date precipitation 0.24 0.11  
Sea Level Pressure  
Sea Level Pressure 30.07 in    
Wind  
Wind Speed 13 mph (South)    
Max Wind Speed 24 mph    
Max Gust Speed 30 mph    
Visibility 10 miles    
Events      
T = Trace of Precipitation, MM = Missing Value Source: NWS Daily Summary

Daily Weather History Graph

Daily Weather History Graph

Search for Another Location

Airport or City:

Trip Planner

Search our weather history database for the weather conditions in past years. The results will help you decide how hot, cold, wet, or windy it might be!

Date:

Astronomy

Jan. 07, 2013 Rise Set
Actual Time 7:49 AM CST 5:25 PM CST
Civil Twilight 7:19 AM CST 5:54 PM CST
Nautical Twilight 6:46 AM CST 6:27 PM CST
Astronomical Twilight 6:14 AM CST 7:00 PM CST
Moon 3:15 AM CST (1/7) 1:36 PM CST (1/7)
Length of Visible Light 10h 35m
Length of Day
9h 36m
Waning Crescent, 22% of the Moon is Illuminated
Jan 7
Waning Crescent
Jan 11
New
Jan 18
First Quarter
Jan 26
Full
Feb 3
Last Quarter

Hourly Weather History & Observations

Time (CST) Temp. Windchill Dew Point Humidity Pressure Visibility Wind Dir Wind Speed Gust Speed Precip Events Conditions
12:53 AM 34.0 °F 25.5 °F 23.0 °F 64% 30.19 in 10.0 mi South 11.5 mph - N/A   Clear
1:53 AM 35.1 °F 25.2 °F 23.0 °F 61% 30.18 in 10.0 mi South 16.1 mph 23.0 mph N/A   Clear
2:53 AM 34.0 °F 23.0 °F 21.9 °F 61% 30.17 in 10.0 mi South 18.4 mph - N/A   Clear
3:53 AM 34.0 °F 24.2 °F 21.9 °F 61% 30.16 in 10.0 mi South 15.0 mph 23.0 mph N/A   Clear
4:53 AM 34.0 °F 25.5 °F 21.9 °F 61% 30.14 in 10.0 mi South 11.5 mph - N/A   Clear
5:53 AM 35.1 °F 25.2 °F 23.0 °F 61% 30.13 in 10.0 mi South 16.1 mph - N/A   Clear
6:53 AM 33.1 °F 26.1 °F 21.9 °F 64% 30.15 in 10.0 mi South 8.1 mph - N/A   Clear
7:53 AM 34.0 °F 25.0 °F 23.0 °F 64% 30.14 in 10.0 mi South 12.7 mph - N/A   Clear
8:53 AM 36.0 °F 27.1 °F 24.1 °F 62% 30.12 in 10.0 mi South 13.8 mph - N/A   Clear
9:53 AM 42.1 °F 35.7 °F 24.1 °F 49% 30.14 in 10.0 mi South 11.5 mph 19.6 mph N/A   Clear
10:53 AM 45.0 °F 37.6 °F 27.0 °F 49% 30.12 in 10.0 mi SSW 17.3 mph - N/A   Clear
11:53 AM 46.9 °F - 27.0 °F 46% 30.10 in 10.0 mi SSW 17.3 mph - N/A   Clear
12:53 PM 48.2 °F - 26.6 °F 43% 30.04 in 10.0 mi SSW 19.6 mph - N/A   Clear
1:53 PM 51.1 °F - 28.9 °F 43% 30.02 in 10.0 mi SSW 19.6 mph - N/A   Clear
2:53 PM 50.0 °F - 28.0 °F 43% 30.02 in 10.0 mi SSW 15.0 mph 24.2 mph N/A   Clear
3:53 PM 51.1 °F - 28.9 °F 43% 30.01 in 10.0 mi South 8.1 mph - N/A   Clear
4:53 PM 46.4 °F 42.4 °F 28.4 °F 50% 29.99 in 10.0 mi South 8.1 mph - N/A   Clear
5:53 PM 41.0 °F 38.0 °F 28.9 °F 62% 30.01 in 10.0 mi South 4.6 mph - N/A   Clear
6:53 PM 37.9 °F 32.7 °F 28.0 °F 68% 30.01 in 10.0 mi South 6.9 mph - N/A   Clear
7:53 PM 41.0 °F 34.7 °F 27.0 °F 57% 29.99 in 10.0 mi South 10.4 mph - N/A   Clear
8:53 PM 41.0 °F 34.3 °F 26.1 °F 55% 30.00 in 10.0 mi South 11.5 mph - N/A   Clear
9:53 PM 39.9 °F 32.1 °F 27.0 °F 60% 29.99 in 10.0 mi South 13.8 mph - N/A   Clear
10:53 PM 39.0 °F 31.8 °F 27.0 °F 62% 29.98 in 10.0 mi South 11.5 mph - N/A   Clear
11:53 PM 37.9 °F 29.6 °F 26.1 °F 62% 29.98 in 10.0 mi South 13.8 mph - N/A   Clear